Regional Weather Roundup
Issued by NWS Sioux Falls, SD

Home | Current Version | Previous Version | Graphics & Text | Print | Product List | Glossary Off
Versions: 1 2 3 4 5 6 7 8 9 10 11 12 13 14 15 16 17 18 19 20 21 22 23 24 25 26 27 28 29 30 31 32 33 34 35 36 37 38 39 40 41 42 43 44 45 46 47 48 49 50

000
ASUS43 KFSD 260710
RWRFSD

WEATHER ROUNDUP FOR SE SOUTH DAKOTA/SW MINNESOTA/NW IOWA
NATIONAL WEATHER SERVICE SIOUX FALLS SD
200 AM CDT THU APR 26 2018

NOTE: "FAIR" INDICATES FEW OR NO CLOUDS BELOW 12,000 FEET WITH NO
SIGNIFICANT WEATHER AND OR OBSTRUCTIONS TO VISIBILITY.


SDZ038>040-050-052>070-260800-
SOUTHEAST SOUTH DAKOTA

CITY           SKY/WX    TMP DP  RH WIND       PRES   REMARKS
BROOKINGS      CLOUDY    44  33  65 S9        29.89F
CHAMBERLAIN    CLOUDY    48  35  60 SW8       29.86F
HURON          CLOUDY    48  34  58 S13       29.85F
MADISON        FAIR      45  32  61 SW12      29.89F
MITCHELL       CLOUDY    49  34  56 S12       29.88F
SIOUX FALLS    CLOUDY    48  31  51 SW9       29.91F
WINNER         FAIR      52  31  44 SW16      29.88R
YANKTON        MOCLDY    46  31  55 S6        29.92F
$$

MNZ071-072-080-081-089-090-097-098-260800-
SOUTHWEST MINNESOTA

CITY           SKY/WX    TMP DP  RH WIND       PRES   REMARKS
FAIRMONT       MOCLDY    42  36  79 S8        29.94F
JACKSON        PTCLDY    41  34  75 S8        29.94F
LUVERNE        CLOUDY    36  30  80 S3        29.93S
MARSHALL       CLOUDY    42  34  73 SW13      29.89F
MONTEVIDEO     CLOUDY    45  36  70 SW6       29.87F
PIPESTONE      CLOUDY   N/A N/A N/A SW9       29.90F
REDWOOD FALLS  CLOUDY    40  35  83 S7        29.90S
TRACY          CLOUDY    46  33  60 SW12      29.89F
WINDOM         CLOUDY    41  25  52 S6        29.92F
WORTHINGTON    CLOUDY    40  32  73 S9        29.93F
$$

IAZ001>003-012>014-020>022-031-032-NEZ013-014-SDZ071-260800-
NORTHWEST IOWA

CITY           SKY/WX    TMP DP  RH WIND       PRES   REMARKS
CHEROKEE       CLOUDY    37  33  84 CALM      29.96S
DENISON        CLOUDY    39  32  75 CALM      29.98F
ESTHERVILLE    CLOUDY    40  37  89 S7        29.94F
LE MARS        CLOUDY    41  32  70 S5        29.96S
ORANGE CITY    CLOUDY    45  32  61 CALM      29.95S
SHELDON        CLOUDY    36  32  87 SE6       29.92F
SIOUX CITY     CLOUDY    44  33  65 SW7       29.97R
SPENCER        CLOUDY    40  32  73 S5        29.95S
STORM LAKE     CLOUDY    45  27  49 S7        29.96S
$$

ABBREVIATIONS USED IN REMARKS
   TC - TEMPERATURE IN CELSIUS
  WCI - WIND CHILL INDEX
   HX - HEAT INDEX
  VSB - VISIBILITY





USA.gov is the U.S. government's official web portal to all federal, state and local government web resources and services.